Flag for Vatican City State Weather past 2 weeks in Vatican City, Vatican City State

Now
46 °F

Clear.


Feels Like: 46 °F
Forecast: 42 / 59 °F
Wind: No wind

Location: Rome / Ciampino

Current Time: Dec 21, 2014 at 1:47:29 AM

Latest Report: Dec 21, 2014 at 12:15 AM


Visibility: 10 mi

Pressure: 30.18 "Hg

Humidity: 93%

Dew point: 45 °F

Location of Vatican CityLocation

Historic Weather in Vatican City — Graph

°F

Vatican City temperature yesterday

Maximum temperature yesterday: 57 °F (at 1:15 PM)
Minimum temperature yesterday: 45 °F (at 1:15 AM)
Average temperature yesterday: 50 °F

Past Weeks' High & Low Weather Summary

 TemperatureHumidityPressure
High63 °F (Dec 13, 1:15 PM)100% (Dec 9, 4:45 AM)30.24 "Hg (Dec 9, 4:45 AM)
Low34 °F (Dec 12, 6:15 AM)42% (Dec 9, 2:45 PM)29.68 "Hg (Dec 16, 3:15 PM)
Average50 °F80%30.01 "Hg
* Reported Dec 6 12:15 AM — Dec 21 12:15 AM, Vatican City, Weather by CustomWeather, © 2014

Note: Actual official high and low records may vary slightly from our data, if they occured in-between our weather recording intervals... More about our weather records

Advertising

Vatican City weather history for previous 24 hours

 ConditionsComfort  
Time TempWeatherWind HumidityBarometerVisibility
12:15 AM
Dec 21
46 °FClear.No wind93%30.18 "Hg10 mi
11:45 PM
Dec 20
48 °FPassing clouds.No wind94%30.18 "Hg5 mi
11:15 PM48 °FPassing clouds.No wind94%30.18 "Hg5 mi
10:45 PM50 °FPassing clouds.1 mph94%30.15 "Hg5 mi
10:15 PM50 °FPassing clouds.No wind94%30.18 "Hg5 mi
9:45 PM52 °FPassing clouds.No wind94%30.18 "Hg5 mi
9:15 PM52 °FPassing clouds.No wind88%30.18 "Hg5 mi
8:45 PM52 °FPassing clouds.No wind88%30.18 "HgN/A
8:15 PM52 °FPassing clouds.1 mph88%30.18 "HgN/A
7:45 PM50 °FPassing clouds.1 mph94%30.15 "HgN/A
7:15 PM52 °FPassing clouds.No wind88%30.15 "HgN/A
6:45 PM52 °FPassing clouds.3 mph88%30.15 "HgN/A
6:15 PM52 °FPassing clouds.No wind88%30.15 "HgN/A
5:45 PM54 °FPassing clouds.No wind82%30.15 "HgN/A
5:15 PM54 °FPassing clouds.No wind82%30.15 "Hg5 mi
4:45 PM54 °FPassing clouds.No wind82%30.15 "Hg4 mi
4:15 PM55 °FScattered clouds.No wind77%30.15 "Hg4 mi
3:45 PM55 °FScattered clouds.No wind82%30.15 "Hg4 mi
3:15 PM55 °FScattered clouds.1 mph77%30.15 "Hg4 mi
2:45 PM54 °FScattered clouds.2 mph82%30.15 "Hg4 mi
2:15 PM55 °FScattered clouds.2 mph82%30.15 "Hg4 mi
1:45 PM57 °FScattered clouds.1 mph82%30.18 "Hg5 mi
1:15 PM57 °FScattered clouds.2 mph82%30.18 "Hg5 mi
12:45 PM55 °FScattered clouds.5 mph88%30.18 "Hg4 mi
12:15 PM54 °FScattered clouds.3 mph88%30.21 "Hg4 mi
11:45 AM52 °FScattered clouds.1 mph88%30.21 "HgN/A
11:15 AM52 °FScattered clouds.No wind88%30.21 "HgN/A
10:45 AM50 °FScattered clouds.No wind94%30.21 "HgN/A
10:15 AM50 °FScattered clouds.No wind88%30.21 "HgN/A
9:45 AM48 °FBroken clouds.No wind94%30.21 "HgN/A
9:15 AM48 °FScattered clouds.No wind94%30.21 "HgN/A
8:45 AM48 °FScattered clouds.3 mph94%30.21 "HgN/A
8:15 AM48 °FScattered clouds.No wind94%30.18 "HgN/A
7:45 AM46 °FBroken clouds.No wind93%30.18 "HgN/A
7:15 AM46 °FPartly cloudy.No wind93%30.18 "HgN/A
6:45 AM46 °FPassing clouds.No wind93%30.18 "HgN/A
6:15 AM46 °FPassing clouds.5 mph93%30.18 "HgN/A
5:45 AM45 °FPassing clouds.No wind93%30.18 "HgN/A
5:15 AM45 °FPassing clouds.No wind87%30.18 "HgN/A
4:45 AM45 °FPassing clouds.No wind87%30.18 "HgN/A
4:15 AM45 °FPassing clouds.No wind87%30.21 "HgN/A
3:45 AM45 °FPassing clouds.No wind87%30.21 "HgN/A
3:15 AM45 °FPassing clouds.1 mph93%30.21 "HgN/A
2:45 AM45 °FPassing clouds.1 mph87%30.21 "HgN/A
2:15 AM45 °FPassing clouds.1 mph87%30.21 "HgN/A
1:45 AM45 °FPassing clouds.No wind87%30.21 "HgN/A
1:15 AM45 °FPassing clouds.No wind87%30.21 "HgN/A
Weather by CustomWeather, © 2014

See weather overviewHow to use our weather pages